When you browse on this site, cookies collect data to enhance your experience and personalize the content and advertising you see.
Visit our Privacy Policy to learn more. By continuing to use the site, you agree to this use of cookies and data.
  • In Hungary
  • List of Countries
  • For 7 days
  • Water Temperature
  • Weather Map
  • News
  • Weather Widgets
  • user-avatar
    Login

    Hourly Weather Moshary

    Today, 29 May, Friday

    Time Temperature Precipitation Wind Pressure Humidity
    00:00 +11°C° 0 mm 1 mps 744 mmHg 91%
    01:00 +9°C° 0 mm 2 mps 744 mmHg 93%
    02:00 +9°C° 0 mm 2 mps 744 mmHg 94%
    03:00 +9°C° 0 mm 2 mps 743 mmHg 94%
    04:00 +9°C° 0 mm 2 mps 743 mmHg 94%
    05:00 +10°C° 0 mm 2 mps 743 mmHg 94%
    06:00 +10°C° 0.1 mm 3 mps 743 mmHg 93%
    07:00 +11°C° 0.1 mm 3 mps 743 mmHg 92%
    08:00 +11°C° 0.1 mm 3 mps 743 mmHg 91%
    09:00 +12°C° 0.1 mm 3 mps 742 mmHg 89%
    10:00 +12°C° 0.1 mm 3 mps 742 mmHg 87%
    11:00 +13°C° 0.1 mm 3 mps 742 mmHg 86%
    12:00 +13°C° 0.1 mm 3 mps 742 mmHg 83%
    13:00 +14°C° 0.1 mm 3 mps 742 mmHg 80%
    14:00 +15°C° 0.1 mm 4 mps 742 mmHg 77%
    15:00 +16°C° 0 mm 3 mps 742 mmHg 75%
    16:00 +16°C° 0 mm 3 mps 742 mmHg 74%
    17:00 +16°C° 0 mm 3 mps 741 mmHg 72%
    18:00 +14°C° 0 mm 3 mps 741 mmHg 75%
    19:00 +14°C° 0 mm 3 mps 741 mmHg 78%
    20:00 +13°C° 0 mm 3 mps 741 mmHg 81%
    21:00 +12°C° 0 mm 3 mps 741 mmHg 85%
    22:00 +12°C° 0 mm 3 mps 741 mmHg 88%
    23:00 +11°C° 0 mm 4 mps 741 mmHg 91%

    Tomorrow, 30 May, Saturday

    Time Temperature Precipitation Wind Pressure Humidity
    00:00 +11°C° 0 mm 4 mps 741 mmHg 92%
    01:00 +11°C° 0 mm 4 mps 741 mmHg 93%
    02:00 +11°C° 0 mm 4 mps 741 mmHg 94%
    03:00 +11°C° 0 mm 4 mps 741 mmHg 91%
    04:00 +10°C° 0 mm 5 mps 741 mmHg 88%
    05:00 +12°C° 0 mm 5 mps 741 mmHg 85%
    06:00 +13°C° 0 mm 5 mps 741 mmHg 82%
    07:00 +13°C° 0 mm 5 mps 741 mmHg 78%
    08:00 +14°C° 0 mm 5 mps 741 mmHg 74%
    09:00 +15°C° 0 mm 5 mps 741 mmHg 71%
    10:00 +16°C° 0 mm 6 mps 741 mmHg 69%
    11:00 +17°C° 0 mm 6 mps 741 mmHg 66%
    12:00 +17°C° 0 mm 6 mps 741 mmHg 66%
    13:00 +17°C° 0 mm 6 mps 741 mmHg 66%
    14:00 +17°C° 0 mm 6 mps 741 mmHg 66%
    15:00 +17°C° 0 mm 6 mps 740 mmHg 66%
    16:00 +17°C° 0 mm 6 mps 740 mmHg 66%
    17:00 +17°C° 0 mm 6 mps 740 mmHg 66%
    18:00 +16°C° 0 mm 6 mps 740 mmHg 68%
    19:00 +16°C° 0 mm 6 mps 740 mmHg 70%
    20:00 +15°C° 0 mm 6 mps 740 mmHg 72%
    21:00 +14°C° 0 mm 6 mps 740 mmHg 72%
    22:00 +14°C° 0 mm 6 mps 740 mmHg 72%
    23:00 +14°C° 0 mm 6 mps 740 mmHg 73%

    Day after tomorrow, 31 May, Sunday

    Time Temperature Precipitation Wind Pressure Humidity
    00:00 +13°C° 0 mm 6 mps 740 mmHg 71%
    01:00 +11°C° 0 mm 6 mps 740 mmHg 69%
    02:00 +11°C° 0 mm 6 mps 740 mmHg 67%
    03:00 +11°C° 0 mm 6 mps 740 mmHg 66%
    04:00 +11°C° 0 mm 6 mps 741 mmHg 66%
    05:00 +10°C° 0 mm 6 mps 741 mmHg 65%
    06:00 +11°C° 0 mm 7 mps 741 mmHg 61%
    07:00 +14°C° 0 mm 7 mps 742 mmHg 56%
    08:00 +15°C° 0 mm 7 mps 742 mmHg 52%
    09:00 +16°C° 0 mm 7 mps 742 mmHg 48%
    10:00 +17°C° 0 mm 7 mps 742 mmHg 45%
    11:00 +19°C° 0 mm 6 mps 743 mmHg 41%
    12:00 +19°C° 0 mm 6 mps 743 mmHg 41%
    13:00 +20°C° 0 mm 6 mps 743 mmHg 41%
    14:00 +20°C° 0 mm 6 mps 743 mmHg 41%
    15:00 +20°C° 0 mm 6 mps 743 mmHg 43%
    16:00 +19°C° 0 mm 5 mps 743 mmHg 45%
    17:00 +19°C° 0 mm 5 mps 743 mmHg 47%
    18:00 +16°C° 0 mm 5 mps 744 mmHg 52%
    19:00 +14°C° 0 mm 4 mps 744 mmHg 58%
    20:00 +12°C° 0 mm 3 mps 744 mmHg 63%
    21:00 +11°C° 0 mm 3 mps 745 mmHg 64%
    22:00 +10°C° 0 mm 3 mps 745 mmHg 65%
    23:00 +9°C° 0 mm 3 mps 746 mmHg 65%

    1 June, Monday

    Time Temperature Precipitation Wind Pressure Humidity
    00:00 +8°C° 0 mm 3 mps 746 mmHg 69%
    01:00 +7°C° 0 mm 2 mps 746 mmHg 73%
    02:00 +6°C° 0 mm 2 mps 746 mmHg 77%
    03:00 +7°C° 0 mm 2 mps 746 mmHg 76%
    04:00 +7°C° 0 mm 2 mps 746 mmHg 74%
    05:00 +8°C° 0 mm 2 mps 747 mmHg 73%
    06:00 +9°C° 0 mm 2 mps 747 mmHg 67%
    07:00 +11°C° 0 mm 3 mps 747 mmHg 61%
    08:00 +13°C° 0 mm 3 mps 747 mmHg 56%
    09:00 +14°C° 0 mm 4 mps 747 mmHg 54%
    10:00 +15°C° 0 mm 4 mps 746 mmHg 53%
    11:00 +17°C° 0 mm 4 mps 746 mmHg 51%
    12:00 +17°C° 0 mm 4 mps 746 mmHg 51%
    13:00 +18°C° 0 mm 4 mps 746 mmHg 52%
    14:00 +18°C° 0 mm 4 mps 745 mmHg 52%
    15:00 +17°C° 0.1 mm 3 mps 745 mmHg 57%
    16:00 +17°C° 0.1 mm 3 mps 745 mmHg 62%
    17:00 +16°C° 0.1 mm 3 mps 745 mmHg 68%
    18:00 +14°C° 0.2 mm 3 mps 745 mmHg 75%
    19:00 +14°C° 0.2 mm 2 mps 745 mmHg 82%
    20:00 +13°C° 0.2 mm 2 mps 745 mmHg 90%
    21:00 +12°C° 0 mm 2 mps 744 mmHg 91%
    22:00 +10°C° 0 mm 2 mps 744 mmHg 93%
    23:00 +10°C° 0 mm 2 mps 744 mmHg 94%

    2 June, Tuesday

    Time Temperature Precipitation Wind Pressure Humidity
    00:00 +9°C° 0 mm 2 mps 744 mmHg 95%
    01:00 +9°C° 0 mm 2 mps 744 mmHg 96%
    02:00 +8°C° 0 mm 2 mps 744 mmHg 97%
    03:00 +9°C° 0 mm 2 mps 744 mmHg 96%
    04:00 +10°C° 0 mm 2 mps 744 mmHg 95%
    05:00 +10°C° 0 mm 2 mps 744 mmHg 93%
    06:00 +11°C° 0.1 mm 3 mps 744 mmHg 92%
    07:00 +11°C° 0.1 mm 3 mps 744 mmHg 90%
    08:00 +12°C° 0.1 mm 3 mps 744 mmHg 88%
    09:00 +12°C° 0.2 mm 3 mps 744 mmHg 86%
    10:00 +12°C° 0.2 mm 3 mps 744 mmHg 83%
    11:00 +13°C° 0.2 mm 3 mps 744 mmHg 81%
    12:00 +14°C° 0.2 mm 3 mps 743 mmHg 72%
    13:00 +16°C° 0.2 mm 3 mps 743 mmHg 64%
    14:00 +18°C° 0.2 mm 3 mps 743 mmHg 55%
    15:00 +18°C° 0.1 mm 3 mps 743 mmHg 55%
    16:00 +18°C° 0.1 mm 3 mps 742 mmHg 54%
    17:00 +18°C° 0.1 mm 3 mps 742 mmHg 53%
    18:00 +16°C° 0 mm 2 mps 742 mmHg 61%
    19:00 +14°C° 0 mm 1 mps 742 mmHg 69%
    20:00 +12°C° 0 mm 1 mps 742 mmHg 77%
    21:00 +11°C° 0 mm 1 mps 742 mmHg 80%
    22:00 +10°C° 0 mm 1 mps 742 mmHg 83%
    23:00 +9°C° 0 mm 1 mps 743 mmHg 87%

    3 June, Wednesday

    Time Temperature Precipitation Wind Pressure Humidity
    00:00 +9°C° 0 mm 1 mps 743 mmHg 88%
    01:00 +7°C° 0 mm 0 mps 743 mmHg 89%
    02:00 +7°C° 0 mm 0 mps 743 mmHg 90%
    03:00 +8°C° 0 mm 0 mps 743 mmHg 87%
    04:00 +9°C° 0 mm 0 mps 743 mmHg 84%
    05:00 +10°C° 0 mm 1 mps 743 mmHg 80%
    06:00 +13°C° 0 mm 1 mps 743 mmHg 72%
    07:00 +15°C° 0 mm 1 mps 743 mmHg 64%
    08:00 +18°C° 0 mm 1 mps 743 mmHg 56%
    09:00 +19°C° 0 mm 1 mps 743 mmHg 54%
    10:00 +20°C° 0 mm 1 mps 742 mmHg 52%
    11:00 +20°C° 0 mm 1 mps 742 mmHg 50%
    12:00 +21°C° 0 mm 1 mps 742 mmHg 50%
    13:00 +21°C° 0 mm 1 mps 742 mmHg 50%
    14:00 +21°C° 0 mm 1 mps 741 mmHg 50%
    15:00 +21°C° 0.2 mm 1 mps 741 mmHg 56%
    16:00 +21°C° 0.2 mm 1 mps 741 mmHg 61%
    17:00 +19°C° 0.2 mm 2 mps 741 mmHg 67%
    18:00 +19°C° 0.1 mm 1 mps 741 mmHg 74%
    19:00 +18°C° 0.1 mm 1 mps 741 mmHg 81%
    20:00 +15°C° 0.1 mm 1 mps 741 mmHg 88%
    21:00 +14°C° 0 mm 1 mps 741 mmHg 90%
    22:00 +14°C° 0 mm 1 mps 741 mmHg 92%
    23:00 +13°C° 0 mm 1 mps 741 mmHg 94%
    Show more